| time (UTC) | temp F | wind direction | speed MPH | gust MPH | rain 1hr in | rain 24hr in | rain mn in | humidity % | barometer mb |
| 20260504141024 | 68 | 247 | 4.0 | 11.0 | 0.00 | 0.01 | 0.01 | 87 | 1012.4 |
| 20260504081024 | 65 | 358 | 1.0 | 2.0 | 0.00 | 0.27 | 0.00 | 94 | 1013.4 |
| 20260504050024 | 60 | 0.0 | 0.0 | 0.00 | 0.28 | 0.00 | 99 | 1013.0 | |
| 20260504045024 | 60 | 0.0 | 0.0 | 0.00 | 0.28 | 0.00 | 99 | 1013.1 | |
| 20260504044024 | 60 | 0.0 | 0.0 | 0.00 | 0.28 | 0.00 | 99 | 1013.0 | |
| 20260504043024 | 60 | 0.0 | 0.0 | 0.00 | 0.28 | 0.00 | 99 | 1013.2 | |
| 20260504042044 | 60 | 0.0 | 0.0 | 0.00 | 0.28 | 0.00 | 99 | 1013.1 | |
| 20260504041024 | 60 | 0.0 | 0.0 | 0.00 | 0.28 | 0.00 | 99 | 1013.0 | |
| 20260504040024 | 60 | 0.0 | 0.0 | 0.00 | 0.28 | 0.00 | 99 | 1013.0 | |
| 20260504035024 | 60 | 337 | 0.0 | 1.0 | 0.00 | 0.28 | 0.00 | 99 | 1013.2 |
| 20260504034023 | 61 | 333 | 0.0 | 1.0 | 0.00 | 0.28 | 0.00 | 99 | 1013.4 |
| 20260504033023 | 60 | 319 | 0.0 | 1.0 | 0.00 | 0.28 | 0.00 | 99 | 1013.6 |
| 20260504032024 | 60 | 328 | 0.0 | 1.0 | 0.00 | 0.28 | 0.00 | 99 | 1013.7 |
| 20260504031044 | 60 | 299 | 0.0 | 2.0 | 0.00 | 0.28 | 0.00 | 99 | 1013.6 |
| 20260504030024 | 60 | 282 | 0.0 | 1.0 | 0.00 | 0.28 | 0.00 | 99 | 1013.6 |
| 20260504025024 | 60 | 342 | 0.0 | 1.0 | 0.00 | 0.28 | 0.00 | 99 | 1013.7 |
| 20260504024024 | 60 | 0.0 | 0.0 | 0.00 | 0.28 | 0.00 | 99 | 1013.6 | |
| 20260504023044 | 60 | 19 | 0.0 | 1.0 | 0.00 | 0.28 | 0.00 | 99 | 1013.6 |
| 20260504022043 | 61 | 319 | 0.0 | 1.0 | 0.00 | 0.28 | 0.00 | 99 | 1013.7 |
| 20260504021023 | 61 | 358 | 0.0 | 1.0 | 0.00 | 0.28 | 0.00 | 99 | 1013.7 |
| 20260504020024 | 61 | 0.0 | 0.0 | 0.00 | 0.28 | 0.00 | 99 | 1013.6 | |
| 20260504015044 | 61 | 354 | 0.0 | 1.0 | 0.00 | 0.28 | 0.00 | 99 | 1013.8 |
| 20260504014024 | 61 | 24 | 0.0 | 1.0 | 0.00 | 0.28 | 0.00 | 99 | 1013.9 |
| 20260504013024 | 62 | 313 | 0.0 | 2.0 | 0.00 | 0.28 | 0.00 | 99 | 1014.0 |
| 20260504012023 | 61 | 342 | 0.0 | 1.0 | 0.00 | 0.28 | 0.00 | 99 | 1014.0 |
| 20260504011044 | 62 | 2 | 0.0 | 1.0 | 0.00 | 0.28 | 0.00 | 99 | 1013.9 |
| 20260504010024 | 62 | 294 | 0.0 | 3.0 | 0.00 | 0.28 | 0.00 | 99 | 1014.3 |
| 20260504005024 | 61 | 311 | 1.0 | 2.0 | 0.00 | 0.28 | 0.00 | 99 | 1014.1 |
| 20260504004024 | 61 | 314 | 1.0 | 2.0 | 0.00 | 0.28 | 0.00 | 99 | 1014.3 |
| 20260504003024 | 61 | 296 | 1.0 | 2.0 | 0.00 | 0.28 | 0.00 | 99 | 1014.5 |
| 20260504002024 | 60 | 266 | 1.0 | 6.0 | 0.00 | 0.28 | 0.00 | 99 | 1014.7 |
| 20260504001024 | 60 | 322 | 0.0 | 1.0 | 0.00 | 0.28 | 0.00 | 99 | 1014.5 |
| 20260504000024 | 60 | 332 | 0.0 | 1.0 | 0.00 | 0.28 | 0.00 | 99 | 1014.4 |
| 20260503235023 | 60 | 341 | 0.0 | 1.0 | 0.00 | 0.28 | 0.28 | 99 | 1014.5 |
| 20260503234044 | 61 | 303 | 1.0 | 2.0 | 0.00 | 0.28 | 0.28 | 99 | 1014.6 |
| 20260503233024 | 61 | 339 | 0.0 | 1.0 | 0.00 | 0.28 | 0.28 | 99 | 1014.4 |
| 20260503232023 | 60 | 344 | 0.0 | 1.0 | 0.00 | 0.28 | 0.28 | 99 | 1014.4 |
| 20260503231024 | 60 | 0.0 | 0.0 | 0.00 | 0.28 | 0.28 | 99 | 1014.4 | |
| 20260503230024 | 61 | 324 | 0.0 | 1.0 | 0.00 | 0.28 | 0.28 | 99 | 1014.4 |
| 20260503225044 | 61 | 0.0 | 0.0 | 0.00 | 0.28 | 0.28 | 98 | 1014.4 | |
| 20260503224024 | 60 | 0.0 | 0.0 | 0.00 | 0.28 | 0.28 | 98 | 1014.5 | |
| 20260503223024 | 60 | 0.0 | 0.0 | 0.00 | 0.28 | 0.28 | 98 | 1014.5 | |
| 20260503222043 | 61 | 0.0 | 0.0 | 0.00 | 0.28 | 0.28 | 98 | 1014.3 | |
| 20260503221043 | 61 | 0.0 | 0.0 | 0.00 | 0.28 | 0.28 | 98 | 1014.0 | |
| 20260503220024 | 61 | 0.0 | 0.0 | 0.00 | 0.28 | 0.28 | 97 | 1014.1 | |
| 20260503215024 | 61 | 0.0 | 0.0 | 0.00 | 0.28 | 0.28 | 97 | 1014.1 | |
| 20260503214024 | 61 | 9 | 0.0 | 1.0 | 0.00 | 0.28 | 0.28 | 97 | 1014.2 |
| 20260503213044 | 61 | 330 | 0.0 | 1.0 | 0.00 | 0.28 | 0.28 | 97 | 1014.3 |
| 20260503212024 | 61 | 0.0 | 0.0 | 0.00 | 0.28 | 0.28 | 96 | 1014.2 | |
| 20260503211044 | 61 | 0.0 | 1.0 | 0.00 | 0.28 | 0.28 | 96 | 1014.1 | |
| 20260503210024 | 62 | 10 | 0.0 | 1.0 | 0.00 | 0.28 | 0.28 | 95 | 1014.1 |
| 20260503205023 | 62 | 13 | 0.0 | 1.0 | 0.00 | 0.28 | 0.28 | 95 | 1014.1 |
| 20260503204023 | 62 | 15 | 0.0 | 1.0 | 0.00 | 0.28 | 0.28 | 95 | 1013.9 |
| 20260503203103 | 62 | 17 | 1.0 | 2.0 | 0.00 | 0.28 | 0.28 | 94 | 1013.8 |
| 20260503202023 | 63 | 11 | 0.0 | 1.0 | 0.00 | 0.28 | 0.28 | 93 | 1014.0 |
| 20260503201023 | 63 | 20 | 0.0 | 2.0 | 0.00 | 0.28 | 0.28 | 92 | 1014.0 |
| 20260503200023 | 63 | 23 | 1.0 | 3.0 | 0.00 | 0.28 | 0.28 | 92 | 1013.9 |
| 20260503195043 | 63 | 25 | 1.0 | 4.0 | 0.00 | 0.28 | 0.28 | 92 | 1013.5 |
| 20260503194023 | 63 | 20 | 0.0 | 2.0 | 0.00 | 0.28 | 0.28 | 91 | 1013.8 |
| 20260503193043 | 64 | 18 | 0.0 | 1.0 | 0.00 | 0.28 | 0.28 | 90 | 1013.9 |
| 20260503192104 | 63 | 12 | 1.0 | 2.0 | 0.00 | 0.28 | 0.28 | 90 | 1013.9 |
| 20260503191024 | 63 | 20 | 1.0 | 2.0 | 0.00 | 0.28 | 0.28 | 91 | 1013.7 |
| 20260503190023 | 64 | 9 | 0.0 | 1.0 | 0.00 | 0.28 | 0.28 | 90 | 1013.9 |
| 20260503185023 | 64 | 10 | 0.0 | 1.0 | 0.00 | 0.28 | 0.28 | 89 | 1014.0 |
| 20260503184023 | 64 | 14 | 0.0 | 1.0 | 0.00 | 0.28 | 0.28 | 88 | 1013.9 |
| 20260503183023 | 65 | 14 | 0.0 | 1.0 | 0.00 | 0.28 | 0.28 | 86 | 1014.0 |
| 20260503182023 | 65 | 345 | 0.0 | 1.0 | 0.00 | 0.28 | 0.28 | 86 | 1013.9 |
| 20260503181023 | 65 | 9 | 0.0 | 1.0 | 0.00 | 0.28 | 0.28 | 86 | 1013.8 |
| 20260503180023 | 65 | 23 | 0.0 | 1.0 | 0.00 | 0.28 | 0.28 | 85 | 1013.8 |
| 20260503175023 | 66 | 20 | 0.0 | 2.0 | 0.00 | 0.28 | 0.28 | 83 | 1013.8 |
| 20260503174023 | 66 | 29 | 1.0 | 3.0 | 0.00 | 0.28 | 0.28 | 82 | 1013.7 |
| 20260503173023 | 67 | 30 | 1.0 | 4.0 | 0.00 | 0.28 | 0.28 | 80 | 1013.7 |
| 20260503172022 | 67 | 44 | 2.0 | 3.0 | 0.00 | 0.28 | 0.28 | 80 | 1013.5 |
| 20260503171022 | 68 | 30 | 1.0 | 3.0 | 0.00 | 0.28 | 0.28 | 79 | 1013.7 |